Time,TemperatureF,DewpointF,PressureIn,WindDirection,WindDirectionDegrees,WindSpeedMPH,WindSpeedGustMPH,Humidity,HourlyPrecipIn,Conditions,Clouds,dailyrainin,SolarRadiationWatts/m^2,SoftwareType,DateUTC
2013-04-21 00:02:00,57.7,48.0,30.20,ENE,74,0.0,-999.0,70,0.00,,,0.00,0,Wunderground v.1.15,2013-04-21 05:02:00,
2013-04-21 00:08:00,57.8,48.5,30.20,ENE,74,0.0,-999.0,71,0.00,,,0.00,0,Wunderground v.1.15,2013-04-21 05:08:00,
2013-04-21 00:14:00,57.8,48.8,30.20,ENE,74,0.0,-999.0,72,0.00,,,0.00,0,Wunderground v.1.15,2013-04-21 05:14:00,
2013-04-21 00:20:00,57.9,49.7,30.20,ENE,74,0.0,-999.0,74,0.00,,,0.00,0,Wunderground v.1.15,2013-04-21 05:20:00,
2013-04-21 00:26:00,57.9,50.0,30.21,ENE,74,0.0,-999.0,75,0.00,,,0.00,0,Wunderground v.1.15,2013-04-21 05:26:00,
2013-04-21 00:32:00,57.9,50.4,30.20,ENE,74,0.0,-999.0,76,0.00,,,0.00,0,Wunderground v.1.15,2013-04-21 05:32:00,
2013-04-21 00:38:00,57.8,50.3,30.21,ENE,73,0.0,-999.0,76,0.00,,,0.00,0,Wunderground v.1.15,2013-04-21 05:38:00,
2013-04-21 00:44:00,57.8,50.3,30.21,ENE,73,0.0,-999.0,76,0.00,,,0.00,0,Wunderground v.1.15,2013-04-21 05:44:00,
2013-04-21 00:50:00,57.7,50.2,30.20,ENE,73,0.0,-999.0,76,0.00,,,0.00,0,Wunderground v.1.15,2013-04-21 05:50:00,
2013-04-21 00:56:00,57.5,49.6,30.20,ENE,73,0.0,-999.0,75,0.00,,,0.00,0,Wunderground v.1.15,2013-04-21 05:56:00,
2013-04-21 01:02:00,57.5,49.6,30.20,ENE,73,0.0,-999.0,75,0.00,,,0.00,0,Wunderground v.1.15,2013-04-21 06:02:00,
2013-04-21 01:08:00,57.5,49.6,30.20,ENE,74,0.0,-999.0,75,0.00,,,0.00,0,Wunderground v.1.15,2013-04-21 06:08:00,
2013-04-21 01:14:00,57.5,49.6,30.20,ENE,74,0.0,-999.0,75,0.00,,,0.00,0,Wunderground v.1.15,2013-04-21 06:14:00,
2013-04-21 01:20:00,57.6,50.1,30.20,ENE,74,0.0,-999.0,76,0.00,,,0.00,0,Wunderground v.1.15,2013-04-21 06:20:00,
2013-04-21 01:26:00,57.6,50.1,30.19,ENE,74,0.0,-999.0,76,0.00,,,0.00,0,Wunderground v.1.15,2013-04-21 06:26:00,
2013-04-21 01:32:00,57.6,50.1,30.19,NNE,13,0.0,-999.0,76,0.00,,,0.00,0,Wunderground v.1.15,2013-04-21 06:32:00,
2013-04-21 01:38:00,57.7,50.2,30.19,ENE,62,0.0,-999.0,76,0.00,,,0.00,0,Wunderground v.1.15,2013-04-21 06:38:00,
2013-04-21 01:44:00,57.8,50.6,30.19,NE,37,0.0,-999.0,77,0.00,,,0.00,0,Wunderground v.1.15,2013-04-21 06:44:00,
2013-04-21 01:50:00,58.0,51.2,30.18,ENE,68,0.0,-999.0,78,0.00,,,0.00,0,Wunderground v.1.15,2013-04-21 06:50:00,
2013-04-21 01:56:00,58.0,51.2,30.18,NE,36,0.0,-999.0,78,0.00,,,0.00,0,Wunderground v.1.15,2013-04-21 06:56:00,
2013-04-21 02:02:00,58.0,50.8,30.18,NE,36,0.0,-999.0,77,0.00,,,0.00,0,Wunderground v.1.15,2013-04-21 07:02:00,
2013-04-21 02:08:00,57.8,50.3,30.18,NE,36,0.0,-999.0,76,0.00,,,0.00,0,Wunderground v.1.15,2013-04-21 07:08:00,
2013-04-21 02:14:00,57.8,50.3,30.18,ENE,76,0.0,-999.0,76,0.00,,,0.00,0,Wunderground v.1.15,2013-04-21 07:14:00,
2013-04-21 02:20:00,57.8,49.6,30.18,SE,128,0.0,-999.0,74,0.00,,,0.00,0,Wunderground v.1.15,2013-04-21 07:20:00,
2013-04-21 02:26:00,57.7,49.5,30.18,ESE,121,0.0,-999.0,74,0.00,,,0.00,0,Wunderground v.1.15,2013-04-21 07:26:00,
2013-04-21 02:32:00,57.7,49.5,30.18,ESE,121,0.0,-999.0,74,0.00,,,0.00,0,Wunderground v.1.15,2013-04-21 07:32:00,
2013-04-21 02:38:00,57.5,49.3,30.18,East,89,0.0,-999.0,74,0.00,,,0.00,0,Wunderground v.1.15,2013-04-21 07:38:00,
2013-04-21 02:44:00,57.5,48.9,30.18,East,89,0.0,-999.0,73,0.00,,,0.00,0,Wunderground v.1.15,2013-04-21 07:44:00,
2013-04-21 02:50:00,57.4,49.2,30.17,East,89,0.0,-999.0,74,0.00,,,0.00,0,Wunderground v.1.15,2013-04-21 07:50:00,
2013-04-21 02:56:00,57.4,49.2,30.18,East,89,0.0,-999.0,74,0.00,,,0.00,0,Wunderground v.1.15,2013-04-21 07:56:00,
2013-04-21 03:02:00,57.3,49.1,30.18,East,89,0.0,-999.0,74,0.00,,,0.00,0,Wunderground v.1.15,2013-04-21 08:02:00,
2013-04-21 03:08:00,57.2,49.0,30.18,SW,224,0.0,-999.0,74,0.00,,,0.00,0,Wunderground v.1.15,2013-04-21 08:08:00,
2013-04-21 03:14:00,57.2,49.0,30.18,SE,146,0.0,-999.0,74,0.00,,,0.00,0,Wunderground v.1.15,2013-04-21 08:14:00,
2013-04-21 03:20:00,57.3,49.1,30.17,SE,146,0.0,-999.0,74,0.00,,,0.00,0,Wunderground v.1.15,2013-04-21 08:20:00,
2013-04-21 03:26:00,57.3,49.4,30.17,SE,146,0.0,-999.0,75,0.00,,,0.00,0,Wunderground v.1.15,2013-04-21 08:26:00,
2013-04-21 03:32:00,57.4,50.2,30.17,NE,34,0.0,-999.0,77,0.00,,,0.00,0,Wunderground v.1.15,2013-04-21 08:32:00,
2013-04-21 03:38:00,57.5,51.0,30.17,NE,47,0.0,-999.0,79,0.00,,,0.00,0,Wunderground v.1.15,2013-04-21 08:38:00,
2013-04-21 03:44:00,57.6,50.8,30.17,NNE,20,0.0,-999.0,78,0.00,,,0.00,0,Wunderground v.1.15,2013-04-21 08:44:00,
2013-04-21 03:50:00,57.7,51.2,30.17,NNW,342,0.0,-999.0,79,0.00,,,0.00,0,Wunderground v.1.15,2013-04-21 08:50:00,
2013-04-21 03:56:00,57.5,51.0,30.17,ENE,76,0.0,-999.0,79,0.00,,,0.00,0,Wunderground v.1.15,2013-04-21 08:56:00,
2013-04-21 04:02:00,57.4,50.9,30.17,West,267,0.0,-999.0,79,0.00,,,0.00,0,Wunderground v.1.15,2013-04-21 09:02:00,
2013-04-21 04:08:00,57.3,50.8,30.18,NNE,17,0.0,-999.0,79,0.00,,,0.00,0,Wunderground v.1.15,2013-04-21 09:08:00,
2013-04-21 04:14:00,57.2,50.7,30.18,East,93,0.0,-999.0,79,0.00,,,0.00,0,Wunderground v.1.15,2013-04-21 09:14:00,
2013-04-21 04:20:00,57.1,50.6,30.18,East,80,0.0,-999.0,79,0.00,,,0.00,0,Wunderground v.1.15,2013-04-21 09:20:00,
2013-04-21 04:26:00,56.9,50.5,30.18,East,94,0.0,-999.0,79,0.00,,,0.00,0,Wunderground v.1.15,2013-04-21 09:26:00,
2013-04-21 04:32:00,56.8,50.4,30.18,NW,322,0.0,-999.0,79,0.00,,,0.00,0,Wunderground v.1.15,2013-04-21 09:32:00,
2013-04-21 04:38:00,56.7,50.3,30.18,ENE,73,0.0,-999.0,79,0.00,,,0.00,0,Wunderground v.1.15,2013-04-21 09:38:00,
2013-04-21 04:44:00,56.6,49.8,30.18,West,276,0.0,-999.0,78,0.00,,,0.00,0,Wunderground v.1.15,2013-04-21 09:44:00,
2013-04-21 04:50:00,56.6,50.2,30.17,WSW,252,0.0,-999.0,79,0.00,,,0.00,0,Wunderground v.1.15,2013-04-21 09:50:00,
2013-04-21 04:56:00,56.4,50.3,30.18,SSE,153,0.0,-999.0,80,0.00,,,0.00,0,Wunderground v.1.15,2013-04-21 09:56:00,
2013-04-21 05:02:00,56.3,50.2,30.18,East,90,0.0,-999.0,80,0.00,,,0.00,0,Wunderground v.1.15,2013-04-21 10:02:00,
2013-04-21 05:08:00,56.1,50.7,30.18,ESE,120,0.0,-999.0,82,0.00,,,0.00,0,Wunderground v.1.15,2013-04-21 10:08:00,
2013-04-21 05:14:00,55.9,50.5,30.17,NNW,329,0.0,-999.0,82,0.00,,,0.00,0,Wunderground v.1.15,2013-04-21 10:14:00,
2013-04-21 05:20:00,55.8,50.4,30.17,SSE,166,0.0,-999.0,82,0.00,,,0.00,0,Wunderground v.1.15,2013-04-21 10:20:00,
2013-04-21 05:26:00,55.7,50.6,30.17,West,263,0.0,-999.0,83,0.00,,,0.00,0,Wunderground v.1.15,2013-04-21 10:26:00,
2013-04-21 05:32:00,55.5,49.8,30.18,NNE,25,0.0,-999.0,81,0.00,,,0.00,0,Wunderground v.1.15,2013-04-21 10:32:00,
2013-04-21 05:38:00,55.6,49.5,30.18,NNE,32,0.0,-999.0,80,0.00,,,0.00,0,Wunderground v.1.15,2013-04-21 10:38:00,
2013-04-21 05:44:00,55.8,49.7,30.18,NNW,345,0.0,-999.0,80,0.00,,,0.00,0,Wunderground v.1.15,2013-04-21 10:44:00,
2013-04-21 05:50:00,56.0,49.6,30.18,NNE,15,0.0,-999.0,79,0.00,,,0.00,0,Wunderground v.1.15,2013-04-21 10:50:00,
2013-04-21 05:56:00,56.1,49.3,30.18,ENE,61,0.0,-999.0,78,0.00,,,0.00,0,Wunderground v.1.15,2013-04-21 10:56:00,
2013-04-21 06:02:00,56.3,49.5,30.18,NNW,335,0.0,-999.0,78,0.00,,,0.00,0,Wunderground v.1.15,2013-04-21 11:02:00,
2013-04-21 06:08:00,56.4,49.6,30.18,East,80,0.0,-999.0,78,0.00,,,0.00,0,Wunderground v.1.15,2013-04-21 11:08:00,
2013-04-21 06:14:00,56.3,49.2,30.19,NNE,25,0.0,-999.0,77,0.00,,,0.00,0,Wunderground v.1.15,2013-04-21 11:14:00,
2013-04-21 06:20:00,56.2,49.1,30.19,East,98,0.0,-999.0,77,0.00,,,0.00,7,Wunderground v.1.15,2013-04-21 11:20:00,
2013-04-21 06:26:00,56.1,49.0,30.19,SE,126,0.0,-999.0,77,0.00,,,0.00,11,Wunderground v.1.15,2013-04-21 11:26:00,
2013-04-21 06:32:00,56.0,48.9,30.19,WNW,290,0.0,-999.0,77,0.00,,,0.00,14,Wunderground v.1.15,2013-04-21 11:32:00,
2013-04-21 06:38:00,55.8,48.3,30.19,ENE,71,0.0,-999.0,76,0.00,,,0.00,18,Wunderground v.1.15,2013-04-21 11:38:00,
2013-04-21 06:44:00,55.6,47.8,30.19,East,82,0.0,-999.0,75,0.00,,,0.00,21,Wunderground v.1.15,2013-04-21 11:44:00,
2013-04-21 06:50:00,55.4,47.6,30.19,ENE,66,0.0,-999.0,75,0.00,,,0.00,25,Wunderground v.1.15,2013-04-21 11:50:00,
2013-04-21 06:56:00,55.3,47.9,30.19,ENE,71,0.0,-999.0,76,0.00,,,0.00,28,Wunderground v.1.15,2013-04-21 11:56:00,
2013-04-21 07:02:00,55.3,47.5,30.19,NE,51,0.0,-999.0,75,0.00,,,0.00,35,Wunderground v.1.15,2013-04-21 12:02:00,
2013-04-21 07:08:00,55.2,47.4,30.19,WNW,282,0.0,-999.0,75,0.00,,,0.00,40,Wunderground v.1.15,2013-04-21 12:08:00,
2013-04-21 07:14:00,55.3,47.5,30.20,East,98,0.0,-999.0,75,0.00,,,0.00,95,Wunderground v.1.15,2013-04-21 12:14:00,
2013-04-21 07:20:00,55.5,47.3,30.20,East,90,0.0,-999.0,74,0.00,,,0.00,74,Wunderground v.1.15,2013-04-21 12:20:00,
2013-04-21 07:26:00,55.9,47.7,30.20,East,94,0.0,-999.0,74,0.00,,,0.00,51,Wunderground v.1.15,2013-04-21 12:26:00,
2013-04-21 07:32:00,56.2,48.0,30.20,East,92,0.0,-999.0,74,0.00,,,0.00,86,Wunderground v.1.15,2013-04-21 12:32:00,
2013-04-21 07:38:00,56.4,48.2,30.20,NW,322,0.0,-999.0,74,0.00,,,0.00,183,Wunderground v.1.15,2013-04-21 12:38:00,
2013-04-21 07:44:00,56.7,48.9,30.20,West,279,0.0,-999.0,75,0.00,,,0.00,114,Wunderground v.1.15,2013-04-21 12:44:00,
2013-04-21 07:50:00,57.1,49.2,30.21,NE,53,0.0,-999.0,75,0.00,,,0.00,142,Wunderground v.1.15,2013-04-21 12:50:00,
2013-04-21 07:56:00,57.4,49.5,30.21,ESE,115,0.0,-999.0,75,0.00,,,0.00,100,Wunderground v.1.15,2013-04-21 12:56:00,
2013-04-21 08:02:00,57.6,49.7,30.21,East,92,1.0,-999.0,75,0.00,,,0.00,70,Wunderground v.1.15,2013-04-21 13:02:00,
2013-04-21 08:08:00,57.8,49.9,30.21,ENE,78,1.0,-999.0,75,0.00,,,0.00,105,Wunderground v.1.15,2013-04-21 13:08:00,
2013-04-21 08:14:00,58.2,50.3,30.21,East,90,0.0,-999.0,75,0.00,,,0.00,130,Wunderground v.1.15,2013-04-21 13:14:00,
2013-04-21 08:20:00,58.4,50.5,30.21,North,350,0.0,-999.0,75,0.00,,,0.00,70,Wunderground v.1.15,2013-04-21 13:20:00,
2013-04-21 08:26:00,58.6,50.7,30.21,East,99,0.0,-999.0,75,0.00,,,0.00,86,Wunderground v.1.15,2013-04-21 13:26:00,
2013-04-21 08:32:00,58.7,50.4,30.21,SSW,202,0.0,-999.0,74,0.00,,,0.00,169,Wunderground v.1.15,2013-04-21 13:32:00,
2013-04-21 08:38:00,58.8,50.9,30.21,East,82,1.0,-999.0,75,0.00,,,0.00,84,Wunderground v.1.15,2013-04-21 13:38:00,
2013-04-21 08:44:00,59.0,51.1,30.21,NW,304,1.0,-999.0,75,0.00,,,0.00,485,Wunderground v.1.15,2013-04-21 13:44:00,
2013-04-21 08:50:00,59.2,51.3,30.21,NE,50,1.0,-999.0,75,0.00,,,0.00,153,Wunderground v.1.15,2013-04-21 13:50:00,
2013-04-21 08:56:00,59.6,51.3,30.21,NE,34,1.0,-999.0,74,0.00,,,0.00,105,Wunderground v.1.15,2013-04-21 13:56:00,
2013-04-21 09:02:00,60.0,51.3,30.22,ENE,63,1.0,-999.0,73,0.00,,,0.00,262,Wunderground v.1.15,2013-04-21 14:02:00,
2013-04-21 09:08:00,60.4,52.1,30.21,NNE,24,1.0,-999.0,74,0.00,,,0.00,155,Wunderground v.1.15,2013-04-21 14:08:00,
2013-04-21 09:14:00,60.8,52.1,30.21,NW,323,1.0,-999.0,73,0.00,,,0.00,555,Wunderground v.1.15,2013-04-21 14:14:00,
2013-04-21 09:20:00,61.3,52.6,30.21,NW,323,1.0,-999.0,73,0.00,,,0.00,631,Wunderground v.1.15,2013-04-21 14:20:00,
2013-04-21 09:26:00,61.8,53.1,30.21,NNW,332,1.0,-999.0,73,0.00,,,0.00,656,Wunderground v.1.15,2013-04-21 14:26:00,
2013-04-21 09:32:00,62.6,53.4,30.22,NNW,341,1.0,-999.0,72,0.00,,,0.00,671,Wunderground v.1.15,2013-04-21 14:32:00,
2013-04-21 09:38:00,63.1,53.5,30.22,NE,38,1.0,-999.0,71,0.00,,,0.00,696,Wunderground v.1.15,2013-04-21 14:38:00,
2013-04-21 09:44:00,63.8,53.4,30.22,East,87,1.0,-999.0,69,0.00,,,0.00,721,Wunderground v.1.15,2013-04-21 14:44:00,
2013-04-21 09:50:00,64.4,53.2,30.22,North,355,1.0,-999.0,67,0.00,,,0.00,721,Wunderground v.1.15,2013-04-21 14:50:00,
2013-04-21 09:56:00,65.0,53.8,30.22,NNW,328,1.0,-999.0,67,0.00,,,0.00,729,Wunderground v.1.15,2013-04-21 14:56:00,
2013-04-21 10:02:00,65.7,54.0,30.22,NNW,346,1.0,-999.0,66,0.00,,,0.00,756,Wunderground v.1.15,2013-04-21 15:02:00,
2013-04-21 10:08:00,66.3,54.2,30.22,SE,126,1.0,-999.0,65,0.00,,,0.00,772,Wunderground v.1.15,2013-04-21 15:08:00,
2013-04-21 10:14:00,67.2,51.4,30.22,East,101,1.0,-999.0,57,0.00,,,0.00,791,Wunderground v.1.15,2013-04-21 15:14:00,
2013-04-21 10:20:00,68.2,51.9,30.21,SE,128,1.0,-999.0,56,0.00,,,0.00,805,Wunderground v.1.15,2013-04-21 15:20:00,
2013-04-21 10:26:00,69.0,52.2,30.21,South,173,2.0,-999.0,55,0.00,,,0.00,817,Wunderground v.1.15,2013-04-21 15:26:00,
2013-04-21 10:32:00,69.2,52.8,30.22,ESE,103,2.0,-999.0,56,0.00,,,0.00,837,Wunderground v.1.15,2013-04-21 15:32:00,
2013-04-21 10:38:00,69.4,52.5,30.22,South,175,3.0,-999.0,55,0.00,,,0.00,849,Wunderground v.1.15,2013-04-21 15:38:00,
2013-04-21 10:44:00,69.7,53.8,30.22,SSW,193,2.0,-999.0,57,0.00,,,0.00,861,Wunderground v.1.15,2013-04-21 15:44:00,
2013-04-21 10:50:00,70.1,53.2,30.22,East,85,2.0,-999.0,55,0.00,,,0.00,872,Wunderground v.1.15,2013-04-21 15:50:00,
2013-04-21 10:56:00,70.6,53.6,30.22,ESE,110,2.0,-999.0,55,0.00,,,0.00,888,Wunderground v.1.15,2013-04-21 15:56:00,
2013-04-21 11:02:00,70.8,53.3,30.21,SSE,156,1.0,-999.0,54,0.00,,,0.00,898,Wunderground v.1.15,2013-04-21 16:02:00,
2013-04-21 11:08:00,71.2,52.1,30.21,East,79,2.0,-999.0,51,0.00,,,0.00,911,Wunderground v.1.15,2013-04-21 16:08:00,
2013-04-21 11:14:00,71.5,52.4,30.21,SW,234,2.0,-999.0,51,0.00,,,0.00,919,Wunderground v.1.15,2013-04-21 16:14:00,
2013-04-21 11:20:00,71.7,52.6,30.21,East,98,1.0,-999.0,51,0.00,,,0.00,928,Wunderground v.1.15,2013-04-21 16:20:00,
2013-04-21 11:26:00,71.9,53.3,30.21,SW,236,1.0,-999.0,52,0.00,,,0.00,932,Wunderground v.1.15,2013-04-21 16:26:00,
2013-04-21 11:32:00,72.3,53.2,30.21,East,98,1.0,-999.0,51,0.00,,,0.00,942,Wunderground v.1.15,2013-04-21 16:32:00,
2013-04-21 11:38:00,72.6,54.0,30.21,North,360,1.0,-999.0,52,0.00,,,0.00,963,Wunderground v.1.15,2013-04-21 16:38:00,
2013-04-21 11:44:00,73.2,54.0,30.22,SSE,153,1.0,-999.0,51,0.00,,,0.00,970,Wunderground v.1.15,2013-04-21 16:44:00,
2013-04-21 11:50:00,73.8,53.4,30.21,East,82,2.0,-999.0,49,0.00,,,0.00,977,Wunderground v.1.15,2013-04-21 16:50:00,
2013-04-21 11:56:00,73.8,53.4,30.21,WSW,237,2.0,-999.0,49,0.00,,,0.00,981,Wunderground v.1.15,2013-04-21 16:56:00,
2013-04-21 12:02:00,73.8,53.4,30.21,East,98,2.0,-999.0,49,0.00,,,0.00,988,Wunderground v.1.15,2013-04-21 17:02:00,
2013-04-21 12:08:00,74.0,53.1,30.20,West,260,1.0,-999.0,48,0.00,,,0.00,995,Wunderground v.1.15,2013-04-21 17:08:00,
2013-04-21 12:14:00,74.1,53.2,30.20,East,83,1.0,-999.0,48,0.00,,,0.00,998,Wunderground v.1.15,2013-04-21 17:14:00,
2013-04-21 12:20:00,74.5,53.5,30.20,SSW,206,1.0,-999.0,48,0.00,,,0.00,1002,Wunderground v.1.15,2013-04-21 17:20:00,
2013-04-21 12:26:00,75.1,53.5,30.19,North,360,1.0,-999.0,47,0.00,,,0.00,1000,Wunderground v.1.15,2013-04-21 17:26:00,
2013-04-21 12:32:00,76.0,53.1,30.19,South,187,1.0,-999.0,45,0.00,,,0.00,1005,Wunderground v.1.15,2013-04-21 17:32:00,
2013-04-21 12:38:00,76.5,53.6,30.19,SE,141,1.0,-999.0,45,0.00,,,0.00,1007,Wunderground v.1.15,2013-04-21 17:38:00,
2013-04-21 12:44:00,76.6,53.1,30.19,SSW,197,2.0,-999.0,44,0.00,,,0.00,1009,Wunderground v.1.15,2013-04-21 17:44:00,
2013-04-21 12:50:00,76.4,52.9,30.19,NW,320,1.0,-999.0,44,0.00,,,0.00,1007,Wunderground v.1.15,2013-04-21 17:50:00,
2013-04-21 12:56:00,76.3,52.8,30.18,SSE,154,0.0,-999.0,44,0.00,,,0.00,1007,Wunderground v.1.15,2013-04-21 17:56:00,
2013-04-21 13:02:00,76.8,53.8,30.18,ENE,76,1.0,-999.0,45,0.00,,,0.00,1007,Wunderground v.1.15,2013-04-21 18:02:00,
2013-04-21 13:08:00,77.1,54.1,30.19,ESE,121,1.0,-999.0,45,0.00,,,0.00,1005,Wunderground v.1.15,2013-04-21 18:08:00,
2013-04-21 13:14:00,77.4,54.4,30.18,East,93,1.0,-999.0,45,0.00,,,0.00,1002,Wunderground v.1.15,2013-04-21 18:14:00,
2013-04-21 13:20:00,77.5,53.9,30.19,ESE,114,1.0,-999.0,44,0.00,,,0.00,1000,Wunderground v.1.15,2013-04-21 18:20:00,
2013-04-21 13:26:00,77.3,53.7,30.18,ESE,111,1.0,-999.0,44,0.00,,,0.00,993,Wunderground v.1.15,2013-04-21 18:26:00,
2013-04-21 13:32:00,77.7,54.0,30.18,SE,131,1.0,-999.0,44,0.00,,,0.00,990,Wunderground v.1.15,2013-04-21 18:32:00,
2013-04-21 13:38:00,77.5,53.2,30.18,East,84,2.0,-999.0,43,0.00,,,0.00,984,Wunderground v.1.15,2013-04-21 18:38:00,
2013-04-21 13:44:00,77.4,53.8,30.17,SSW,194,1.0,-999.0,44,0.00,,,0.00,977,Wunderground v.1.15,2013-04-21 18:44:00,
2013-04-21 13:50:00,77.6,54.6,30.17,SSE,155,2.0,-999.0,45,0.00,,,0.00,970,Wunderground v.1.15,2013-04-21 18:50:00,
2013-04-21 13:56:00,77.3,53.7,30.17,SSE,155,2.0,-999.0,44,0.00,,,0.00,963,Wunderground v.1.15,2013-04-21 18:56:00,
2013-04-21 14:02:00,77.3,53.7,30.17,SW,214,2.0,-999.0,44,0.00,,,0.00,954,Wunderground v.1.15,2013-04-21 19:02:00,
2013-04-21 14:08:00,76.9,53.9,30.17,SSE,148,2.0,-999.0,45,0.00,,,0.00,944,Wunderground v.1.15,2013-04-21 19:08:00,
2013-04-21 14:14:00,76.8,53.8,30.17,SW,219,3.0,-999.0,45,0.00,,,0.00,933,Wunderground v.1.15,2013-04-21 19:14:00,
2013-04-21 14:20:00,77.0,54.0,30.16,SE,135,2.0,-999.0,45,0.00,,,0.00,923,Wunderground v.1.15,2013-04-21 19:20:00,
2013-04-21 14:26:00,77.1,54.1,30.16,ESE,115,2.0,-999.0,45,0.00,,,0.00,909,Wunderground v.1.15,2013-04-21 19:26:00,
2013-04-21 14:32:00,77.3,54.9,30.16,East,88,2.0,-999.0,46,0.00,,,0.00,896,Wunderground v.1.15,2013-04-21 19:32:00,
2013-04-21 14:38:00,77.4,55.0,30.16,South,173,2.0,-999.0,46,0.00,,,0.00,877,Wunderground v.1.15,2013-04-21 19:38:00,
2013-04-21 14:44:00,77.8,55.4,30.16,South,175,1.0,-999.0,46,0.00,,,0.00,856,Wunderground v.1.15,2013-04-21 19:44:00,
2013-04-21 14:50:00,77.6,54.0,30.15,SW,227,2.0,-999.0,44,0.00,,,0.00,833,Wunderground v.1.15,2013-04-21 19:50:00,
2013-04-21 14:56:00,77.4,53.8,30.15,ESE,104,2.0,-999.0,44,0.00,,,0.00,805,Wunderground v.1.15,2013-04-21 19:56:00,
2013-04-21 15:02:00,77.4,53.8,30.15,SE,142,2.0,-999.0,44,0.00,,,0.00,793,Wunderground v.1.15,2013-04-21 20:02:00,
2013-04-21 15:08:00,77.3,53.7,30.15,South,173,2.0,-999.0,44,0.00,,,0.00,768,Wunderground v.1.15,2013-04-21 20:08:00,
2013-04-21 15:14:00,77.4,53.8,30.14,SSW,212,1.0,-999.0,44,0.00,,,0.00,756,Wunderground v.1.15,2013-04-21 20:14:00,
2013-04-21 15:20:00,78.0,53.7,30.14,South,176,1.0,-999.0,43,0.00,,,0.00,740,Wunderground v.1.15,2013-04-21 20:20:00,
2013-04-21 15:26:00,78.2,54.5,30.14,SW,228,1.0,-999.0,44,0.00,,,0.00,728,Wunderground v.1.15,2013-04-21 20:26:00,
2013-04-21 15:32:00,78.0,54.3,30.14,South,175,1.0,-999.0,44,0.00,,,0.00,708,Wunderground v.1.15,2013-04-21 20:32:00,
2013-04-21 15:38:00,77.8,54.1,30.13,SSE,150,2.0,-999.0,44,0.00,,,0.00,675,Wunderground v.1.15,2013-04-21 20:38:00,
2013-04-21 15:44:00,77.6,53.3,30.14,ESE,121,1.0,-999.0,43,0.00,,,0.00,657,Wunderground v.1.15,2013-04-21 20:44:00,
2013-04-21 15:50:00,77.3,54.3,30.14,SSW,211,1.0,-999.0,45,0.00,,,0.00,640,Wunderground v.1.15,2013-04-21 20:50:00,
2013-04-21 15:56:00,77.2,54.2,30.13,East,79,2.0,-999.0,45,0.00,,,0.00,622,Wunderground v.1.15,2013-04-21 20:56:00,
2013-04-21 16:02:00,77.0,53.4,30.13,South,169,2.0,-999.0,44,0.00,,,0.00,603,Wunderground v.1.15,2013-04-21 21:02:00,
2013-04-21 16:08:00,76.6,53.1,30.13,SSE,161,2.0,-999.0,44,0.00,,,0.00,601,Wunderground v.1.15,2013-04-21 21:08:00,
2013-04-21 16:14:00,76.6,53.1,30.13,SSE,161,1.0,-999.0,44,0.00,,,0.00,580,Wunderground v.1.15,2013-04-21 21:14:00,
2013-04-21 16:20:00,76.8,53.8,30.13,South,169,1.0,-999.0,45,0.00,,,0.00,563,Wunderground v.1.15,2013-04-21 21:20:00,
2013-04-21 16:26:00,76.6,53.7,30.12,SSE,155,1.0,-999.0,45,0.00,,,0.00,418,Wunderground v.1.15,2013-04-21 21:26:00,
2013-04-21 16:32:00,76.3,53.4,30.12,SSE,154,1.0,-999.0,45,0.00,,,0.00,93,Wunderground v.1.15,2013-04-21 21:32:00,
2013-04-21 16:38:00,76.0,53.1,30.12,SSE,150,1.0,-999.0,45,0.00,,,0.00,244,Wunderground v.1.15,2013-04-21 21:38:00,
2013-04-21 16:44:00,75.7,52.8,30.12,SE,127,1.0,-999.0,45,0.00,,,0.00,171,Wunderground v.1.15,2013-04-21 21:44:00,
2013-04-21 16:50:00,75.5,52.7,30.12,SW,215,1.0,-999.0,45,0.00,,,0.00,109,Wunderground v.1.15,2013-04-21 21:50:00,
2013-04-21 16:56:00,75.1,52.9,30.12,SSE,162,1.0,-999.0,46,0.00,,,0.00,190,Wunderground v.1.15,2013-04-21 21:56:00,
2013-04-21 17:02:00,74.7,52.5,30.12,SSW,193,1.0,-999.0,46,0.00,,,0.00,171,Wunderground v.1.15,2013-04-21 22:02:00,
2013-04-21 17:08:00,74.3,53.3,30.12,SE,125,1.0,-999.0,48,0.00,,,0.00,221,Wunderground v.1.15,2013-04-21 22:08:00,
2013-04-21 17:14:00,74.0,53.6,30.12,South,190,1.0,-999.0,49,0.00,,,0.00,120,Wunderground v.1.15,2013-04-21 22:14:00,
2013-04-21 17:20:00,73.6,54.4,30.12,SW,225,1.0,-999.0,51,0.00,,,0.00,130,Wunderground v.1.15,2013-04-21 22:20:00,
2013-04-21 17:26:00,73.1,53.4,30.12,SSE,155,1.0,-999.0,50,0.00,,,0.00,70,Wunderground v.1.15,2013-04-21 22:26:00,
2013-04-21 17:32:00,72.8,53.6,30.13,SSE,150,1.0,-999.0,51,0.00,,,0.00,63,Wunderground v.1.15,2013-04-21 22:32:00,
2013-04-21 17:38:00,72.3,54.2,30.13,SE,137,1.0,-999.0,53,0.00,,,0.00,56,Wunderground v.1.15,2013-04-21 22:38:00,
2013-04-21 17:44:00,71.9,53.8,30.13,South,188,1.0,-999.0,53,0.00,,,0.00,58,Wunderground v.1.15,2013-04-21 22:44:00,
2013-04-21 17:50:00,71.6,53.6,30.13,South,175,1.0,-999.0,53,0.00,,,0.00,58,Wunderground v.1.15,2013-04-21 22:50:00,
2013-04-21 17:56:00,71.2,53.7,30.13,SSE,163,1.0,-999.0,54,0.00,,,0.00,47,Wunderground v.1.15,2013-04-21 22:56:00,
2013-04-21 18:02:00,70.9,53.9,30.13,South,173,1.0,-999.0,55,0.00,,,0.00,47,Wunderground v.1.15,2013-04-21 23:02:00,
2013-04-21 18:08:00,70.6,54.1,30.13,South,184,1.0,-999.0,56,0.00,,,0.00,47,Wunderground v.1.15,2013-04-21 23:08:00,
2013-04-21 18:14:00,70.4,54.0,30.13,South,175,0.0,-999.0,56,0.00,,,0.00,44,Wunderground v.1.15,2013-04-21 23:14:00,
2013-04-21 18:20:00,70.2,53.8,30.13,SSE,166,0.0,-999.0,56,0.00,,,0.00,60,Wunderground v.1.15,2013-04-21 23:20:00,
2013-04-21 18:26:00,70.1,54.2,30.13,SSE,166,0.0,-999.0,57,0.00,,,0.00,35,Wunderground v.1.15,2013-04-21 23:26:00,
2013-04-21 18:32:00,70.1,54.2,30.13,SSE,166,0.0,-999.0,57,0.00,,,0.00,32,Wunderground v.1.15,2013-04-21 23:32:00,
2013-04-21 18:38:00,70.0,54.5,30.13,SSE,166,0.0,-999.0,58,0.00,,,0.00,26,Wunderground v.1.15,2013-04-21 23:38:00,
2013-04-21 18:44:00,69.9,54.4,30.13,SSE,166,0.0,-999.0,58,0.00,,,0.00,25,Wunderground v.1.15,2013-04-21 23:44:00,
2013-04-21 18:50:00,69.8,54.4,30.13,SSE,166,0.0,-999.0,58,0.00,,,0.00,21,Wunderground v.1.15,2013-04-21 23:50:00,
2013-04-21 18:56:00,69.6,54.6,30.13,SSE,166,0.0,-999.0,59,0.00,,,0.00,18,Wunderground v.1.15,2013-04-21 23:56:00,
2013-04-21 19:02:00,69.4,55.4,30.13,SSE,166,0.0,-999.0,61,0.00,,,0.00,12,Wunderground v.1.15,2013-04-22 00:02:00,
2013-04-21 19:08:00,69.0,55.0,30.13,SSE,166,0.0,-999.0,61,0.00,,,0.00,9,Wunderground v.1.15,2013-04-22 00:08:00,
2013-04-21 19:14:00,68.6,55.1,30.13,SSE,166,0.0,-999.0,62,0.00,,,0.00,5,Wunderground v.1.15,2013-04-22 00:14:00,
2013-04-21 19:20:00,68.2,55.1,30.13,SSE,166,0.0,-999.0,63,0.00,,,0.00,0,Wunderground v.1.15,2013-04-22 00:20:00,
2013-04-21 19:26:00,67.7,55.1,30.13,SSE,166,0.0,-999.0,64,0.00,,,0.00,0,Wunderground v.1.15,2013-04-22 00:26:00,
2013-04-21 19:32:00,67.2,55.0,30.13,SSE,166,0.0,-999.0,65,0.00,,,0.00,0,Wunderground v.1.15,2013-04-22 00:32:00,
2013-04-21 19:38:00,66.8,54.7,30.13,SSE,166,0.0,-999.0,65,0.00,,,0.00,0,Wunderground v.1.15,2013-04-22 00:38:00,
2013-04-21 19:44:00,66.4,54.7,30.14,SSE,166,0.0,-999.0,66,0.00,,,0.00,0,Wunderground v.1.15,2013-04-22 00:44:00,
2013-04-21 19:50:00,65.9,54.6,30.14,SSE,166,0.0,-999.0,67,0.00,,,0.00,0,Wunderground v.1.15,2013-04-22 00:50:00,
2013-04-21 19:56:00,65.4,55.0,30.14,SSE,166,0.0,-999.0,69,0.00,,,0.00,0,Wunderground v.1.15,2013-04-22 00:56:00,
2013-04-21 20:02:00,65.0,54.6,30.14,SSE,166,0.0,-999.0,69,0.00,,,0.00,0,Wunderground v.1.15,2013-04-22 01:02:00,
2013-04-21 20:08:00,64.6,54.6,30.14,SSE,166,0.0,-999.0,70,0.00,,,0.00,0,Wunderground v.1.15,2013-04-22 01:08:00,
2013-04-21 20:14:00,64.3,54.7,30.14,SSE,166,0.0,-999.0,71,0.00,,,0.00,0,Wunderground v.1.15,2013-04-22 01:14:00,
2013-04-21 20:20:00,64.2,54.6,30.14,SSE,166,0.0,-999.0,71,0.00,,,0.00,0,Wunderground v.1.15,2013-04-22 01:20:00,
2013-04-21 20:26:00,64.0,54.8,30.14,SSE,166,0.0,-999.0,72,0.00,,,0.00,0,Wunderground v.1.15,2013-04-22 01:26:00,
2013-04-21 20:32:00,63.8,54.6,30.14,SSE,166,0.0,-999.0,72,0.00,,,0.00,0,Wunderground v.1.15,2013-04-22 01:32:00,
2013-04-21 20:38:00,63.6,54.8,30.14,SSE,166,0.0,-999.0,73,0.00,,,0.00,0,Wunderground v.1.15,2013-04-22 01:38:00,
2013-04-21 20:44:00,63.5,55.1,30.14,SSE,166,0.0,-999.0,74,0.00,,,0.00,0,Wunderground v.1.15,2013-04-22 01:44:00,
2013-04-21 20:50:00,63.4,55.0,30.15,SSE,166,0.0,-999.0,74,0.00,,,0.00,0,Wunderground v.1.15,2013-04-22 01:50:00,
2013-04-21 20:56:00,63.3,54.9,30.14,SSE,166,0.0,-999.0,74,0.00,,,0.00,0,Wunderground v.1.15,2013-04-22 01:56:00,
2013-04-21 21:02:00,63.2,55.1,30.14,SSE,166,0.0,-999.0,75,0.00,,,0.00,0,Wunderground v.1.15,2013-04-22 02:02:00,
2013-04-21 21:08:00,63.1,55.4,30.14,SSE,166,0.0,-999.0,76,0.00,,,0.00,0,Wunderground v.1.15,2013-04-22 02:08:00,
2013-04-21 21:14:00,63.0,55.7,30.15,SSE,166,0.0,-999.0,77,0.00,,,0.00,0,Wunderground v.1.15,2013-04-22 02:14:00,
2013-04-21 21:20:00,62.8,55.8,30.15,SSE,166,0.0,-999.0,78,0.00,,,0.00,0,Wunderground v.1.15,2013-04-22 02:20:00,
2013-04-21 21:26:00,62.7,55.7,30.15,SSE,166,0.0,-999.0,78,0.00,,,0.00,0,Wunderground v.1.15,2013-04-22 02:26:00,
2013-04-21 21:32:00,62.7,55.7,30.15,SSE,166,0.0,-999.0,78,0.00,,,0.00,0,Wunderground v.1.15,2013-04-22 02:32:00,
2013-04-21 21:38:00,62.8,55.8,30.15,SSE,166,0.0,-999.0,78,0.00,,,0.00,0,Wunderground v.1.15,2013-04-22 02:38:00,
2013-04-21 21:44:00,62.9,55.6,30.15,SSE,166,0.0,-999.0,77,0.00,,,0.00,0,Wunderground v.1.15,2013-04-22 02:44:00,
2013-04-21 21:50:00,63.0,55.3,30.15,SSE,166,0.0,-999.0,76,0.00,,,0.00,0,Wunderground v.1.15,2013-04-22 02:50:00,
2013-04-21 21:56:00,63.2,53.6,30.15,SSE,148,0.0,-999.0,71,0.00,,,0.00,0,Wunderground v.1.15,2013-04-22 02:56:00,
2013-04-21 22:02:00,63.5,52.3,30.15,SSE,148,0.0,-999.0,67,0.00,,,0.00,0,Wunderground v.1.15,2013-04-22 03:02:00,
2013-04-21 22:08:00,63.7,52.5,30.15,SSE,148,0.0,-999.0,67,0.00,,,0.00,0,Wunderground v.1.15,2013-04-22 03:08:00,
2013-04-21 22:14:00,64.0,52.8,30.15,SSE,167,0.0,-999.0,67,0.00,,,0.00,0,Wunderground v.1.15,2013-04-22 03:14:00,
2013-04-21 22:20:00,64.2,53.0,30.15,South,170,0.0,-999.0,67,0.00,,,0.00,0,Wunderground v.1.15,2013-04-22 03:20:00,
2013-04-21 22:26:00,64.3,53.1,30.15,South,170,0.0,-999.0,67,0.00,,,0.00,0,Wunderground v.1.15,2013-04-22 03:26:00,
2013-04-21 22:32:00,64.4,53.2,30.14,South,170,0.0,-999.0,67,0.00,,,0.00,0,Wunderground v.1.15,2013-04-22 03:32:00,
2013-04-21 22:38:00,64.5,53.7,30.14,ENE,57,0.0,-999.0,68,0.00,,,0.00,0,Wunderground v.1.15,2013-04-22 03:38:00,
2013-04-21 22:44:00,64.5,53.3,30.14,ENE,57,0.0,-999.0,67,0.00,,,0.00,0,Wunderground v.1.15,2013-04-22 03:44:00,
2013-04-21 22:50:00,64.6,53.4,30.14,SSE,151,0.0,-999.0,67,0.00,,,0.00,0,Wunderground v.1.15,2013-04-22 03:50:00,
2013-04-21 22:56:00,64.6,53.4,30.14,SE,137,0.0,-999.0,67,0.00,,,0.00,0,Wunderground v.1.15,2013-04-22 03:56:00,
2013-04-21 23:02:00,64.6,53.0,30.14,SE,128,0.0,-999.0,66,0.00,,,0.00,0,Wunderground v.1.15,2013-04-22 04:02:00,
2013-04-21 23:04:00,64.7,52.7,30.14,NW,323,0.0,-999.0,65,0.00,,,0.00,0,Wunderground v.1.15,2013-04-22 04:04:00,
2013-04-21 23:06:00,64.7,52.7,30.14,East,80,0.0,-999.0,65,0.00,,,0.00,0,Wunderground v.1.15,2013-04-22 04:06:00,
2013-04-21 23:12:00,64.8,51.9,30.14,NE,52,0.0,-999.0,63,0.00,,,0.00,0,Wunderground v.1.15,2013-04-22 04:12:00,
2013-04-21 23:14:00,64.8,51.9,30.14,NE,52,0.0,-999.0,63,0.00,,,0.00,0,Wunderground v.1.15,2013-04-22 04:14:00,
2013-04-21 23:20:00,64.8,51.9,30.14,NE,53,0.0,-999.0,63,0.00,,,0.00,0,Wunderground v.1.15,2013-04-22 04:20:00,
2013-04-21 23:26:00,64.8,51.9,30.14,ENE,68,0.0,-999.0,63,0.00,,,0.00,0,Wunderground v.1.15,2013-04-22 04:26:00,
2013-04-21 23:32:00,64.9,52.4,30.13,NW,310,0.0,-999.0,64,0.00,,,0.00,0,Wunderground v.1.15,2013-04-22 04:32:00,
2013-04-21 23:38:00,64.9,52.0,30.13,ESE,104,0.0,-999.0,63,0.00,,,0.00,0,Wunderground v.1.15,2013-04-22 04:38:00,
2013-04-21 23:44:00,65.0,52.1,30.13,NE,51,0.0,-999.0,63,0.00,,,0.00,0,Wunderground v.1.15,2013-04-22 04:44:00,
2013-04-21 23:50:00,65.0,51.7,30.13,NE,37,0.0,-999.0,62,0.00,,,0.00,0,Wunderground v.1.15,2013-04-22 04:50:00,
2013-04-21 23:56:00,65.1,52.6,30.13,NNW,346,0.0,-999.0,64,0.00,,,0.00,0,Wunderground v.1.15,2013-04-22 04:56:00,